Location: *
(51.4660°N, 0.3360°W)
Time: 12:16:15
(UTC+00:00)

NOSS 3-4 (C) - Pass Details

Date: 19 September 2019
Orbit: 913 x 1299 km, 63.4° (Epoch: 17 October)

Event Time Altitude Azimuth Distance (km) Brightness Sun altitude
Rises 19:02:51 0° 314° (NW) 3,800 7.7 -9.4°
Reaches altitude 10° 19:05:22 10° 313° (NW) 2,895 7.0 -9.7°
Maximum altitude 19:12:16 77° 230° (SW) 1,170 4.0 -10.8°
Drops below altitude 10° 19:19:50 10° 145° (SE) 3,162 5.7 -11.9°
Enters shadow 19:20:50 - 145° (SE) 3,508 5.9 -12.1°
